Station Historical Data
Daily Summary for February 24, 2017 Units:  English    Metric   Both
Next Day »
Daily Weekly Monthly Yearly Custom
  High: Low: Average:
Temperature: 40.9 °F 27.7 °F 33 °F
Dew Point: 31.0 °F 23.4 °F 27.6 °F
Humidity: 93% 58% 81%
Wind Speed: 13.0mph 0.0mph 2.5mph
Wind Gust: 20.0mph - -
Wind- - SE
Pressure: 30.35 in 30.28 in -
Precipitation: 0.00 in    
Historical Graphs
 
 
Tabular Data for February 24, 2017
Time Temperature Dew Point Pressure Wind Wind Speed Wind Gust Humidity Rainfall Rate (Hourly) solar Conditions
00:04 30.0 °F 28.2 °F 30.29 in Calm   2.0 mph 93% 0.00 in 0.00 W/m2
00:09 30.0 °F 28.0 °F 30.30 in Calm   1.0 mph 92% 0.00 in 0.00 W/m2
00:14 29.9 °F 27.9 °F 30.30 in Calm   1.0 mph 92% 0.00 in 0.00 W/m2
00:19 29.9 °F 27.9 °F 30.30 in ESE 6.0 mph 8.0 mph 92% 0.00 in 0.00 W/m2
00:24 29.9 °F 27.9 °F 30.30 in Calm   1.0 mph 92% 0.00 in 0.00 W/m2
00:29 29.9 °F 27.9 °F 30.30 in Calm   1.0 mph 92% 0.00 in 0.00 W/m2
00:34 29.9 °F 27.9 °F 30.30 in Calm   1.0 mph 92% 0.00 in 0.00 W/m2
00:39 29.9 °F 27.9 °F 30.30 in Calm   7.0 mph 92% 0.00 in 0.00 W/m2
00:44 29.8 °F 27.8 °F 30.30 in Calm   11.0 mph 92% 0.00 in 0.00 W/m2
00:49 29.7 °F 27.7 °F 30.31 in Calm   14.0 mph 92% 0.00 in 0.00 W/m2
00:54 29.7 °F 27.4 °F 30.31 in ESE 7.0 mph 11.0 mph 91% 0.00 in 0.00 W/m2
00:59 29.6 °F 27.3 °F 30.31 in Calm   12.0 mph 91% 0.00 in 0.00 W/m2
01:04 29.6 °F 27.3 °F 30.31 in ESE 2.0 mph 7.0 mph 91% 0.00 in 0.00 W/m2
01:09 29.6 °F 27.3 °F 30.31 in East 4.0 mph 11.0 mph 91% 0.00 in 0.00 W/m2
01:14 29.5 °F 27.2 °F 30.31 in Calm   9.0 mph 91% 0.00 in 0.00 W/m2
01:19 29.5 °F 27.2 °F 30.31 in Calm   11.0 mph 91% 0.00 in 0.00 W/m2
01:24 29.4 °F 27.1 °F 30.31 in Calm   9.0 mph 91% 0.00 in 0.00 W/m2
01:29 29.4 °F 27.1 °F 30.31 in Calm   9.0 mph 91% 0.00 in 0.00 W/m2
01:34 29.4 °F 27.1 °F 30.32 in ESE 7.0 mph 12.0 mph 91% 0.00 in 0.00 W/m2
01:39 29.4 °F 27.1 °F 30.31 in ESE 2.0 mph 11.0 mph 91% 0.00 in 0.00 W/m2
01:44 29.4 °F 26.8 °F 30.32 in ESE 9.0 mph 11.0 mph 90% 0.00 in 0.00 W/m2
01:49 29.3 °F 26.7 °F 30.32 in East 4.0 mph 12.0 mph 90% 0.00 in 0.00 W/m2
01:54 29.2 °F 26.6 °F 30.32 in ESE 11.0 mph 11.0 mph 90% 0.00 in 0.00 W/m2
01:59 29.2 °F 26.6 °F 30.32 in East 2.0 mph 12.0 mph 90% 0.00 in 0.00 W/m2
02:04 29.1 °F 26.5 °F 30.32 in ESE 9.0 mph 12.0 mph 90% 0.00 in 0.00 W/m2
02:09 29.1 °F 26.5 °F 30.32 in East 4.0 mph 15.0 mph 90% 0.00 in 0.00 W/m2
02:14 29.1 °F 26.5 °F 30.32 in East 6.0 mph 13.0 mph 90% 0.00 in 0.00 W/m2
02:19 29.1 °F 26.5 °F 30.32 in East 7.0 mph 12.0 mph 90% 0.00 in 0.00 W/m2
02:24 29.0 °F 26.4 °F 30.32 in East 8.0 mph 12.0 mph 90% 0.00 in 0.00 W/m2
02:29 29.0 °F 26.4 °F 30.32 in ESE 12.0 mph 12.0 mph 90% 0.00 in 0.00 W/m2
02:34 28.9 °F 26.3 °F 30.32 in East 5.0 mph 11.0 mph 90% 0.00 in 0.00 W/m2
02:39 28.9 °F 26.3 °F 30.31 in ESE 9.0 mph 13.0 mph 90% 0.00 in 0.00 W/m2
02:44 28.9 °F 26.3 °F 30.31 in East 8.0 mph 11.0 mph 90% 0.00 in 0.00 W/m2
02:49 28.9 °F 26.3 °F 30.31 in East 6.0 mph 9.0 mph 90% 0.00 in 0.00 W/m2
02:54 28.8 °F 26.0 °F 30.31 in ESE 9.0 mph 9.0 mph 89% 0.00 in 0.00 W/m2
02:59 28.8 °F 26.0 °F 30.31 in ESE 8.0 mph 13.0 mph 89% 0.00 in 0.00 W/m2
03:04 28.8 °F 25.7 °F 30.31 in East 5.0 mph 13.0 mph 88% 0.00 in 0.00 W/m2
03:09 28.8 °F 25.7 °F 30.31 in ESE 5.0 mph 13.0 mph 88% 0.00 in 0.00 W/m2
03:14 28.7 °F 25.6 °F 30.31 in East 6.0 mph 12.0 mph 88% 0.00 in 0.00 W/m2
03:19 28.7 °F 25.6 °F 30.31 in ESE 8.0 mph 13.0 mph 88% 0.00 in 0.00 W/m2
03:24 28.7 °F 25.6 °F 30.31 in ESE 5.0 mph 12.0 mph 88% 0.00 in 0.00 W/m2
03:29 28.7 °F 25.6 °F 30.31 in East 8.0 mph 12.0 mph 88% 0.00 in 0.00 W/m2
03:34 28.7 °F 25.6 °F 30.31 in Calm   14.0 mph 88% 0.00 in 0.00 W/m2
03:39 28.7 °F 25.6 °F 30.31 in ESE 12.0 mph 14.0 mph 88% 0.00 in 0.00 W/m2
03:44 28.6 °F 25.5 °F 30.31 in ESE 9.0 mph 12.0 mph 88% 0.00 in 0.00 W/m2
03:49 28.6 °F 25.5 °F 30.31 in ESE 4.0 mph 15.0 mph 88% 0.00 in 0.00 W/m2
03:54 28.5 °F 25.4 °F 30.31 in ESE 8.0 mph 13.0 mph 88% 0.00 in 0.00 W/m2
03:59 28.5 °F 25.4 °F 30.31 in East 12.0 mph 12.0 mph 88% 0.00 in 0.00 W/m2
04:04 28.4 °F 25.3 °F 30.30 in ESE 7.0 mph 15.0 mph 88% 0.00 in 0.00 W/m2
04:09 28.3 °F 25.2 °F 30.30 in ESE 6.0 mph 14.0 mph 88% 0.00 in 0.00 W/m2
04:14 28.3 °F 25.2 °F 30.30 in ESE 12.0 mph 16.0 mph 88% 0.00 in 0.00 W/m2
04:19 28.2 °F 25.1 °F 30.30 in ESE 1.0 mph 14.0 mph 88% 0.00 in 0.00 W/m2
04:24 28.1 °F 25.0 °F 30.29 in East 5.0 mph 14.0 mph 88% 0.00 in 0.00 W/m2
04:29 28.1 °F 24.7 °F 30.29 in East 9.0 mph 18.0 mph 87% 0.00 in 0.00 W/m2
04:34 28.0 °F 24.6 °F 30.29 in ESE 6.0 mph 14.0 mph 87% 0.00 in 0.00 W/m2
04:39 28.0 °F 24.6 °F 30.29 in East 5.0 mph 15.0 mph 87% 0.00 in 0.00 W/m2
04:44 28.0 °F 24.6 °F 30.29 in East 8.0 mph 14.0 mph 87% 0.00 in 0.00 W/m2
04:50 27.9 °F 24.5 °F 30.28 in East 2.0 mph 14.0 mph 87% 0.00 in 0.00 W/m2
04:55 27.9 °F 24.5 °F 30.28 in East 7.0 mph 19.0 mph 87% 0.00 in 0.00 W/m2
05:00 27.8 °F 24.4 °F 30.28 in East 9.0 mph 13.0 mph 87% 0.00 in 0.00 W/m2
05:05 27.8 °F 24.4 °F 30.28 in East 2.0 mph 12.0 mph 87% 0.00 in 0.00 W/m2
05:10 27.8 °F 24.4 °F 30.28 in ESE 6.0 mph 13.0 mph 87% 0.00 in 0.00 W/m2
05:15 27.8 °F 24.4 °F 30.28 in ESE 11.0 mph 15.0 mph 87% 0.00 in 0.00 W/m2
05:20 27.7 °F 24.3 °F 30.28 in ESE 5.0 mph 16.0 mph 87% 0.00 in 0.00 W/m2
05:25 27.7 °F 24.3 °F 30.28 in East 8.0 mph 16.0 mph 87% 0.00 in 0.00 W/m2
05:30 27.7 °F 24.3 °F 30.29 in ESE 1.0 mph 13.0 mph 87% 0.00 in 0.00 W/m2
05:35 27.7 °F 24.3 °F 30.29 in East 5.0 mph 16.0 mph 87% 0.00 in 0.00 W/m2
05:40 27.7 °F 24.3 °F 30.29 in ESE 13.0 mph 16.0 mph 87% 0.00 in 0.00 W/m2
05:45 27.7 °F 24.1 °F 30.29 in East 7.0 mph 15.0 mph 86% 0.00 in 0.00 W/m2
05:50 27.7 °F 24.1 °F 30.29 in ESE 8.0 mph 16.0 mph 86% 0.00 in 0.00 W/m2
05:55 27.7 °F 24.1 °F 30.29 in ESE 6.0 mph 16.0 mph 86% 0.00 in 0.00 W/m2
06:00 27.7 °F 23.8 °F 30.29 in SE 9.0 mph 20.0 mph 85% 0.00 in 0.00 W/m2
06:05 27.7 °F 23.8 °F 30.29 in ESE 2.0 mph 14.0 mph 85% 0.00 in 0.00 W/m2
06:10 27.7 °F 23.8 °F 30.29 in East 7.0 mph 16.0 mph 85% 0.00 in 0.00 W/m2
06:15 27.7 °F 23.5 °F 30.29 in ESE 11.0 mph 14.0 mph 84% 0.00 in 0.00 W/m2
06:20 27.8 °F 23.6 °F 30.29 in ESE 2.0 mph 18.0 mph 84% 0.00 in 0.00 W/m2
06:25 27.7 °F 23.5 °F 30.29 in SE 9.0 mph 15.0 mph 84% 0.00 in 0.00 W/m2
06:30 27.8 °F 23.9 °F 30.29 in East 8.0 mph 16.0 mph 85% 0.00 in 0.00 W/m2
06:35 27.8 °F 23.6 °F 30.29 in ESE 8.0 mph 16.0 mph 84% 0.00 in 0.00 W/m2
06:40 27.7 °F 23.8 °F 30.29 in ESE 1.0 mph 16.0 mph 85% 0.00 in 5.00 W/m2
06:45 27.7 °F 23.8 °F 30.29 in SE 7.0 mph 18.0 mph 85% 0.00 in 7.00 W/m2
06:50 27.7 °F 23.5 °F 30.30 in Calm   18.0 mph 84% 0.00 in 11.00 W/m2
06:55 27.7 °F 23.5 °F 30.30 in ESE 9.0 mph 14.0 mph 84% 0.00 in 16.00 W/m2
07:00 27.8 °F 23.6 °F 30.30 in ESE 4.0 mph 15.0 mph 84% 0.00 in 18.00 W/m2
07:05 27.8 °F 23.6 °F 30.30 in ESE 12.0 mph 13.0 mph 84% 0.00 in 21.00 W/m2
07:10 27.8 °F 23.6 °F 30.30 in ESE 8.0 mph 12.0 mph 84% 0.00 in 30.00 W/m2
07:15 27.9 °F 23.7 °F 30.31 in SE 5.0 mph 15.0 mph 84% 0.00 in 37.00 W/m2
07:20 27.9 °F 23.7 °F 30.31 in ESE 7.0 mph 14.0 mph 84% 0.00 in 60.00 W/m2
07:25 27.9 °F 23.7 °F 30.31 in ESE 5.0 mph 16.0 mph 84% 0.00 in 79.00 W/m2
07:30 27.9 °F 23.4 °F 30.31 in ESE 5.0 mph 16.0 mph 83% 0.00 in 95.00 W/m2
07:35 28.0 °F 23.5 °F 30.32 in ESE 5.0 mph 16.0 mph 83% 0.00 in 95.00 W/m2
07:36 28.0 °F 23.5 °F 30.32 in East 13.0 mph 16.0 mph 83% 0.00 in 95.00 W/m2
07:41 28.1 °F 23.6 °F 30.32 in East 4.0 mph 14.0 mph 83% 0.00 in 127.00 W/m2
07:46 28.2 °F 24.0 °F 30.32 in Calm   12.0 mph 84% 0.00 in 155.00 W/m2
07:51 28.3 °F 24.1 °F 30.32 in ESE 2.0 mph 11.0 mph 84% 0.00 in 176.00 W/m2
07:56 28.4 °F 24.2 °F 30.32 in Calm   9.0 mph 84% 0.00 in 197.00 W/m2
08:01 28.5 °F 24.0 °F 30.33 in Calm   1.0 mph 83% 0.00 in 216.00 W/m2
08:06 28.6 °F 23.8 °F 30.33 in Calm   1.0 mph 82% 0.00 in 244.00 W/m2
08:11 28.8 °F 24.3 °F 30.33 in SE 1.0 mph 9.0 mph 83% 0.00 in 258.00 W/m2
08:16 28.9 °F 24.1 °F 30.34 in Calm   8.0 mph 82% 0.00 in 279.00 W/m2
08:21 29.0 °F 24.2 °F 30.34 in Calm   1.0 mph 82% 0.00 in 306.00 W/m2
08:26 29.3 °F 24.5 °F 30.34 in Calm   1.0 mph 82% 0.00 in 299.00 W/m2
08:31 29.5 °F 25.0 °F 30.34 in Calm   1.0 mph 83% 0.00 in 362.00 W/m2
08:36 29.7 °F 24.9 °F 30.34 in Calm   1.0 mph 82% 0.00 in 366.00 W/m2
08:41 29.9 °F 25.1 °F 30.34 in Calm   1.0 mph 82% 0.00 in 350.00 W/m2
08:46 30.1 °F 25.3 °F 30.34 in Calm     82% 0.00 in 339.00 W/m2
08:51 30.3 °F 25.8 °F 30.34 in Calm     83% 0.00 in 322.00 W/m2
08:56 30.5 °F 25.7 °F 30.34 in Calm     82% 0.00 in 288.00 W/m2
09:01 30.8 °F 25.7 °F 30.34 in Calm     81% 0.00 in 272.00 W/m2
09:06 31.1 °F 26.3 °F 30.34 in Calm     82% 0.00 in 461.00 W/m2
09:11 31.3 °F 27.0 °F 30.34 in Calm   1.0 mph 84% 0.00 in 272.00 W/m2
09:16 31.5 °F 26.9 °F 30.34 in Calm     83% 0.00 in 371.00 W/m2
09:21 31.7 °F 26.8 °F 30.34 in Calm     82% 0.00 in 482.00 W/m2
09:26 31.9 °F 27.0 °F 30.34 in Calm   1.0 mph 82% 0.00 in 503.00 W/m2
09:31 32.1 °F 27.2 °F 30.35 in ESE 1.0 mph 1.0 mph 82% 0.00 in 476.00 W/m2
09:36 32.3 °F 27.1 °F 30.35 in Calm     81% 0.00 in 534.00 W/m2
09:41 32.5 °F 27.0 °F 30.35 in Calm     80% 0.00 in 548.00 W/m2
09:46 32.7 °F 27.2 °F 30.35 in Calm   1.0 mph 80% 0.00 in 531.00 W/m2
09:51 32.8 °F 27.3 °F 30.35 in Calm   1.0 mph 80% 0.00 in 534.00 W/m2
09:56 33.0 °F 27.2 °F 30.35 in Calm     79% 0.00 in 554.00 W/m2
10:01 33.2 °F 27.4 °F 30.35 in Calm     79% 0.00 in 613.00 W/m2
10:06 33.4 °F 27.3 °F 30.35 in Calm     78% 0.00 in 615.00 W/m2
10:11 33.9 °F 27.1 °F 30.35 in Calm     76% 0.00 in 613.00 W/m2
10:16 34.3 °F 28.2 °F 30.35 in SE 1.0 mph 1.0 mph 78% 0.00 in 587.00 W/m2
10:21 34.5 °F 27.7 °F 30.35 in Calm   1.0 mph 76% 0.00 in 631.00 W/m2
10:26 34.7 °F 28.2 °F 30.35 in Calm     77% 0.00 in 694.00 W/m2
10:31 35.0 °F 27.9 °F 30.35 in Calm     75% 0.00 in 543.00 W/m2
10:36 35.4 °F 28.0 °F 30.35 in Calm   1.0 mph 74% 0.00 in 464.00 W/m2
10:41 35.6 °F 28.8 °F 30.35 in Calm     76% 0.00 in 492.00 W/m2
10:46 35.9 °F 29.1 °F 30.35 in Calm     76% 0.00 in 573.00 W/m2
10:51 36.0 °F 28.9 °F 30.35 in Calm   1.0 mph 75% 0.00 in 568.00 W/m2
10:56 36.2 °F 28.7 °F 30.35 in Calm   1.0 mph 74% 0.00 in 631.00 W/m2
11:01 36.5 °F 28.7 °F 30.35 in Calm   1.0 mph 73% 0.00 in 684.00 W/m2
11:06 36.8 °F 29.3 °F 30.35 in Calm   1.0 mph 74% 0.00 in 671.00 W/m2
11:11 37.0 °F 29.8 °F 30.35 in SSE 1.0 mph 2.0 mph 75% 0.00 in 705.00 W/m2
11:16 37.2 °F 28.7 °F 30.35 in Calm   1.0 mph 71% 0.00 in 728.00 W/m2
11:21 37.4 °F 28.9 °F 30.35 in West 2.0 mph 2.0 mph 71% 0.00 in 733.00 W/m2
11:26 37.6 °F 28.4 °F 30.34 in SW 5.0 mph 9.0 mph 69% 0.00 in 640.00 W/m2
11:31 37.9 °F 29.4 °F 30.34 in Calm   1.0 mph 71% 0.00 in 279.00 W/m2
11:36 38.1 °F 28.5 °F 30.34 in Calm   1.0 mph 68% 0.00 in 661.00 W/m2
11:41 38.2 °F 28.9 °F 30.34 in Calm     69% 0.00 in 814.00 W/m2
11:46 38.5 °F 29.2 °F 30.34 in South 9.0 mph 11.0 mph 69% 0.00 in 747.00 W/m2
11:51 38.7 °F 29.1 °F 30.34 in Calm     68% 0.00 in 888.00 W/m2
11:56 38.9 °F 29.2 °F 30.34 in Calm     68% 0.00 in 860.00 W/m2
12:01 38.9 °F 29.6 °F 30.34 in WSW 1.0 mph 2.0 mph 69% 0.00 in 854.00 W/m2
12:06 39.0 °F 30.1 °F 30.34 in Calm   1.0 mph 70% 0.00 in 243.00 W/m2
12:12 39.0 °F 27.9 °F 30.33 in Calm     64% 0.00 in 200.00 W/m2
12:17 38.9 °F 28.9 °F 30.33 in Calm   1.0 mph 67% 0.00 in 190.00 W/m2
12:22 38.7 °F 28.3 °F 30.33 in West 1.0 mph 1.0 mph 66% 0.00 in 334.00 W/m2
12:27 38.6 °F 30.0 °F 30.33 in Calm   1.0 mph 71% 0.00 in 200.00 W/m2
12:32 38.4 °F 26.9 °F 30.33 in Calm     63% 0.00 in 225.00 W/m2
12:37 38.4 °F 28.0 °F 30.33 in Calm   1.0 mph 66% 0.00 in 204.00 W/m2
12:42 38.4 °F 29.1 °F 30.32 in Calm   1.0 mph 69% 0.00 in 322.00 W/m2
12:47 38.5 °F 27.0 °F 30.32 in Calm     63% 0.00 in 216.00 W/m2
12:52 38.6 °F 26.3 °F 30.32 in Calm     61% 0.00 in 207.00 W/m2
12:57 38.8 °F 26.9 °F 30.32 in Calm     62% 0.00 in 255.00 W/m2
13:02 38.9 °F 27.0 °F 30.32 in SSW 7.0 mph 8.0 mph 62% 0.00 in 158.00 W/m2
13:07 39.1 °F 26.4 °F 30.32 in SSW 1.0 mph 1.0 mph 60% 0.00 in 165.00 W/m2
13:12 39.2 °F 27.7 °F 30.32 in SW 1.0 mph 1.0 mph 63% 0.00 in 642.00 W/m2
13:17 39.3 °F 28.9 °F 30.32 in Calm   1.0 mph 66% 0.00 in 192.00 W/m2
13:22 39.4 °F 28.2 °F 30.32 in Calm   1.0 mph 64% 0.00 in 220.00 W/m2
13:27 39.3 °F 27.4 °F 30.32 in Calm   1.0 mph 62% 0.00 in 318.00 W/m2
13:32 39.4 °F 25.9 °F 30.31 in Calm   1.0 mph 58% 0.00 in 239.00 W/m2
13:37 39.6 °F 27.7 °F 30.31 in SSW 5.0 mph 12.0 mph 62% 0.00 in 241.00 W/m2
13:42 39.8 °F 27.5 °F 30.31 in SSW 9.0 mph 13.0 mph 61% 0.00 in 798.00 W/m2
13:47 40.4 °F 29.2 °F 30.31 in Calm   4.0 mph 64% 0.00 in 722.00 W/m2
13:49 40.5 °F 29.3 °F 30.31 in SW 5.0 mph 9.0 mph 64% 0.00 in 777.00 W/m2
13:54 40.8 °F 29.6 °F 30.31 in SSW 1.0 mph 9.0 mph 64% 0.00 in 292.00 W/m2
13:59 40.9 °F 28.9 °F 30.31 in Calm   1.0 mph 62% 0.00 in 756.00 W/m2
14:04 40.9 °F 30.1 °F 30.31 in SW 1.0 mph 8.0 mph 65% 0.00 in 216.00 W/m2
14:09 40.8 °F 30.0 °F 30.31 in Calm   11.0 mph 65% 0.00 in 153.00 W/m2
14:14 40.7 °F 30.2 °F 30.30 in SSW 1.0 mph 8.0 mph 66% 0.00 in 295.00 W/m2
14:19 40.6 °F 30.1 °F 30.30 in Calm   10.0 mph 66% 0.00 in 244.00 W/m2
14:24 40.5 °F 30.4 °F 30.30 in Calm   1.0 mph 67% 0.00 in 188.00 W/m2
14:29 40.4 °F 31.0 °F 30.30 in Calm   1.0 mph 69% 0.00 in 534.00 W/m2
14:34 40.4 °F 31.0 °F 30.30 in SW 9.0 mph 10.0 mph 69% 0.00 in 155.00 W/m2
14:39 40.2 °F 30.1 °F 30.30 in SW 6.0 mph 9.0 mph 67% 0.00 in 642.00 W/m2
14:44 40.2 °F 30.5 °F 30.30 in Calm   9.0 mph 68% 0.00 in 209.00 W/m2
14:49 40.1 °F 29.7 °F 30.29 in Calm   1.0 mph 66% 0.00 in 213.00 W/m2
14:54 40.0 °F 29.2 °F 30.29 in Calm   1.0 mph 65% 0.00 in 207.00 W/m2
14:59 39.9 °F 30.2 °F 30.29 in Calm   9.0 mph 68% 0.00 in 313.00 W/m2
15:04 39.8 °F 30.8 °F 30.29 in SSW 12.0 mph 14.0 mph 70% 0.00 in 594.00 W/m2
15:09 40.0 °F 29.9 °F 30.29 in SW 12.0 mph 14.0 mph 67% 0.00 in 594.00 W/m2
15:15 40.1 °F 29.7 °F 30.29 in SW 1.0 mph 8.0 mph 66% 0.00 in 237.00 W/m2
15:19 40.3 °F 29.5 °F 30.29 in SSW 1.0 mph 12.0 mph 65% 0.00 in 512.00 W/m2
15:24 40.5 °F 30.4 °F 30.29 in Calm   12.0 mph 67% 0.00 in 441.00 W/m2
15:30 40.6 °F 30.1 °F 30.29 in Calm   8.0 mph 66% 0.00 in 401.00 W/m2
15:35 40.6 °F 29.8 °F 30.29 in SSW 7.0 mph 16.0 mph 65% 0.00 in 371.00 W/m2
15:40 40.6 °F 29.8 °F 30.29 in Calm   1.0 mph 65% 0.00 in 251.00 W/m2
15:45 40.6 °F 29.4 °F 30.29 in Calm   12.0 mph 64% 0.00 in 213.00 W/m2
15:50 40.5 °F 30.0 °F 30.28 in Calm   10.0 mph 66% 0.00 in 265.00 W/m2
15:55 40.3 °F 29.9 °F 30.29 in Calm   11.0 mph 66% 0.00 in 195.00 W/m2
16:00 40.0 °F 29.6 °F 30.29 in WSW 3.0 mph 7.0 mph 66% 0.00 in 214.00 W/m2
16:05 39.9 °F 29.1 °F 30.29 in Calm   9.0 mph 65% 0.00 in 149.00 W/m2
16:10 39.7 °F 28.5 °F 30.29 in Calm   8.0 mph 64% 0.00 in 192.00 W/m2
16:15 39.6 °F 29.6 °F 30.29 in SW 1.0 mph 11.0 mph 67% 0.00 in 190.00 W/m2
16:20 39.4 °F 29.4 °F 30.29 in SW 6.0 mph 13.0 mph 67% 0.00 in 213.00 W/m2
16:25 39.2 °F 28.8 °F 30.29 in WSW 1.0 mph 4.0 mph 66% 0.00 in 193.00 W/m2
16:30 39.1 °F 28.7 °F 30.29 in Calm   1.0 mph 66% 0.00 in 207.00 W/m2
16:35 39.0 °F 28.6 °F 30.28 in SW 1.0 mph 5.0 mph 66% 0.00 in 153.00 W/m2
16:40 38.9 °F 29.6 °F 30.29 in SSW 6.0 mph 10.0 mph 69% 0.00 in 153.00 W/m2
16:45 38.8 °F 29.5 °F 30.28 in Calm   1.0 mph 69% 0.00 in 162.00 W/m2
16:50 38.7 °F 30.1 °F 30.29 in Calm   7.0 mph 71% 0.00 in 102.00 W/m2
16:55 38.6 °F 30.0 °F 30.29 in Calm   1.0 mph 71% 0.00 in 104.00 W/m2
17:00 38.6 °F 30.7 °F 30.29 in Calm   1.0 mph 73% 0.00 in 56.00 W/m2
17:05 38.4 °F 30.5 °F 30.29 in Calm   6.0 mph 73% 0.00 in 49.00 W/m2
17:10 38.2 °F 30.0 °F 30.29 in Calm   1.0 mph 72% 0.00 in 39.00 W/m2
17:15 38.1 °F 30.2 °F 30.29 in Calm   1.0 mph 73% 0.00 in 35.00 W/m2
17:20 37.9 °F 29.7 °F 30.29 in Calm   1.0 mph 72% 0.00 in 37.00 W/m2
17:25 37.8 °F 29.9 °F 30.29 in Calm     73% 0.00 in 33.00 W/m2
17:30 37.5 °F 31.0 °F 30.29 in Calm     77% 0.00 in 25.00 W/m2
17:35 37.2 °F 30.4 °F 30.29 in Calm     76% 0.00 in 19.00 W/m2
17:40 36.9 °F 31.0 °F 30.29 in Calm     79% 0.00 in 16.00 W/m2
17:45 36.6 °F 30.7 °F 30.29 in Calm     79% 0.00 in 11.00 W/m2
17:50 36.3 °F 31.0 °F 30.29 in Calm     81% 0.00 in 5.00 W/m2
17:55 35.9 °F 30.3 °F 30.29 in Calm     80% 0.00 in 5.00 W/m2
18:00 35.7 °F 30.5 °F 30.29 in Calm     81% 0.00 in 0.00 W/m2
18:05 35.3 °F 30.4 °F 30.29 in Calm     82% 0.00 in 0.00 W/m2
18:10 35.0 °F 30.1 °F 30.29 in Calm     82% 0.00 in 0.00 W/m2
18:15 34.7 °F 30.1 °F 30.29 in Calm     83% 0.00 in 0.00 W/m2
18:20 34.4 °F 29.8 °F 30.29 in Calm     83% 0.00 in 0.00 W/m2
18:25 34.1 °F 29.8 °F 30.29 in Calm     84% 0.00 in 0.00 W/m2
18:30 33.8 °F 29.5 °F 30.29 in Calm     84% 0.00 in 0.00 W/m2
18:35 33.4 °F 29.4 °F 30.29 in Calm     85% 0.00 in 0.00 W/m2
18:40 33.2 °F 28.9 °F 30.29 in Calm     84% 0.00 in 0.00 W/m2
18:45 32.9 °F 28.6 °F 30.29 in Calm     84% 0.00 in 0.00 W/m2
18:50 32.7 °F 28.7 °F 30.29 in Calm     85% 0.00 in 0.00 W/m2
18:55 32.5 °F 28.5 °F 30.29 in Calm     85% 0.00 in 0.00 W/m2
19:00 32.3 °F 28.3 °F 30.29 in Calm     85% 0.00 in 0.00 W/m2
19:05 32.1 °F 28.4 °F 30.29 in Calm     86% 0.00 in 0.00 W/m2
19:10 32.0 °F 28.3 °F 30.29 in Calm     86% 0.00 in 0.00 W/m2
19:15 31.9 °F 28.2 °F 30.29 in Calm     86% 0.00 in 0.00 W/m2
19:20 31.7 °F 28.3 °F 30.29 in Calm     87% 0.00 in 0.00 W/m2
19:25 31.6 °F 28.2 °F 30.30 in Calm     87% 0.00 in 0.00 W/m2
19:30 31.6 °F 28.2 °F 30.30 in Calm     87% 0.00 in 0.00 W/m2
19:35 31.5 °F 28.1 °F 30.30 in Calm     87% 0.00 in 0.00 W/m2
19:40 31.5 °F 28.4 °F 30.30 in Calm     88% 0.00 in 0.00 W/m2
19:45 31.5 °F 28.4 °F 30.30 in Calm     88% 0.00 in 0.00 W/m2
19:50 31.5 °F 28.4 °F 30.30 in SE 6.0 mph 8.0 mph 88% 0.00 in 0.00 W/m2
19:55 31.4 °F 28.5 °F 30.30 in Calm   8.0 mph 89% 0.00 in 0.00 W/m2
20:00 31.4 °F 28.5 °F 30.29 in SE 1.0 mph 1.0 mph 89% 0.00 in 0.00 W/m2
20:05 31.5 °F 28.6 °F 30.30 in Calm   8.0 mph 89% 0.00 in 0.00 W/m2
20:06 31.5 °F 28.6 °F 30.30 in Calm     89% 0.00 in 0.00 W/m2
20:11 31.6 °F 28.7 °F 30.30 in SE 2.0 mph 7.0 mph 89% 0.00 in 0.00 W/m2
20:16 31.6 °F 29.0 °F 30.30 in SE 7.0 mph 7.0 mph 90% 0.00 in 0.00 W/m2
20:21 31.5 °F 28.9 °F 30.30 in Calm   1.0 mph 90% 0.00 in 0.00 W/m2
20:26 31.5 °F 28.9 °F 30.30 in Calm     90% 0.00 in 0.00 W/m2
20:31 31.5 °F 28.9 °F 30.30 in Calm   1.0 mph 90% 0.00 in 0.00 W/m2
20:36 31.6 °F 29.0 °F 30.30 in SE 7.0 mph 7.0 mph 90% 0.00 in 0.00 W/m2
20:41 31.5 °F 28.9 °F 30.30 in SE 6.0 mph 8.0 mph 90% 0.00 in 0.00 W/m2
20:47 31.5 °F 28.9 °F 30.30 in SE 5.0 mph 7.0 mph 90% 0.00 in 0.00 W/m2
20:52 31.5 °F 28.9 °F 30.30 in SE 5.0 mph 7.0 mph 90% 0.00 in 0.00 W/m2
20:57 31.4 °F 28.8 °F 30.30 in SE 7.0 mph 7.0 mph 90% 0.00 in 0.00 W/m2
21:02 31.4 °F 28.8 °F 30.31 in SE 4.0 mph 7.0 mph 90% 0.00 in 0.00 W/m2
21:07 31.4 °F 28.8 °F 30.31 in Calm     90% 0.00 in 0.00 W/m2
21:12 31.4 °F 28.8 °F 30.31 in Calm   1.0 mph 90% 0.00 in 0.00 W/m2
21:17 31.5 °F 28.9 °F 30.31 in Calm   1.0 mph 90% 0.00 in 0.00 W/m2
21:22 31.5 °F 28.9 °F 30.31 in Calm     90% 0.00 in 0.00 W/m2
21:27 31.5 °F 28.9 °F 30.31 in Calm     90% 0.00 in 0.00 W/m2
21:32 31.6 °F 29.0 °F 30.31 in Calm     90% 0.00 in 0.00 W/m2
21:37 31.7 °F 29.1 °F 30.31 in Calm   1.0 mph 90% 0.00 in 0.00 W/m2
21:42 31.7 °F 29.4 °F 30.31 in Calm     91% 0.00 in 0.00 W/m2
21:47 31.8 °F 29.2 °F 30.31 in Calm   1.0 mph 90% 0.00 in 0.00 W/m2
21:52 31.9 °F 29.3 °F 30.31 in Calm   11.0 mph 90% 0.00 in 0.00 W/m2
21:57 31.9 °F 29.3 °F 30.31 in Calm   6.0 mph 90% 0.00 in 0.00 W/m2
22:02 32.0 °F 29.4 °F 30.31 in Calm     90% 0.00 in 0.00 W/m2
22:07 32.1 °F 29.5 °F 30.31 in Calm     90% 0.00 in 0.00 W/m2
22:12 32.1 °F 29.5 °F 30.31 in ESE 6.0 mph 7.0 mph 90% 0.00 in 0.00 W/m2
22:17 32.1 °F 29.5 °F 30.31 in Calm     90% 0.00 in 0.00 W/m2
22:22 32.1 °F 29.5 °F 30.30 in Calm   7.0 mph 90% 0.00 in 0.00 W/m2
22:27 32.1 °F 29.5 °F 30.31 in ESE 6.0 mph 6.0 mph 90% 0.00 in 0.00 W/m2
22:32 32.1 °F 29.5 °F 30.30 in Calm   6.0 mph 90% 0.00 in 0.00 W/m2
22:37 32.1 °F 29.5 °F 30.30 in Calm   1.0 mph 90% 0.00 in 0.00 W/m2
22:42 32.1 °F 29.2 °F 30.30 in ESE 4.0 mph 8.0 mph 89% 0.00 in 0.00 W/m2
22:47 32.2 °F 29.6 °F 30.30 in Calm   7.0 mph 90% 0.00 in 0.00 W/m2
22:52 32.2 °F 29.6 °F 30.30 in ESE 5.0 mph 7.0 mph 90% 0.00 in 0.00 W/m2
22:57 32.2 °F 29.6 °F 30.30 in Calm   6.0 mph 90% 0.00 in 0.00 W/m2
23:02 32.3 °F 29.7 °F 30.30 in ESE 1.0 mph 8.0 mph 90% 0.00 in 0.00 W/m2
23:07 32.3 °F 29.7 °F 30.30 in Calm     90% 0.00 in 0.00 W/m2
23:12 32.3 °F 29.4 °F 30.30 in ESE 1.0 mph 8.0 mph 89% 0.00 in 0.00 W/m2
23:17 32.3 °F 29.4 °F 30.30 in Calm   9.0 mph 89% 0.00 in 0.00 W/m2
23:22 32.2 °F 29.3 °F 30.29 in ESE 7.0 mph 11.0 mph 89% 0.00 in 0.00 W/m2
23:27 32.2 °F 29.3 °F 30.29 in Calm   5.0 mph 89% 0.00 in 0.00 W/m2
23:32 32.1 °F 29.2 °F 30.29 in Calm   1.0 mph 89% 0.00 in 0.00 W/m2
23:37 32.1 °F 29.2 °F 30.29 in ESE 8.0 mph 9.0 mph 89% 0.00 in 0.00 W/m2
23:42 32.1 °F 29.2 °F 30.29 in Calm   11.0 mph 89% 0.00 in 0.00 W/m2
23:47 32.1 °F 29.2 °F 30.29 in ESE 6.0 mph 9.0 mph 89% 0.00 in 0.00 W/m2
23:52 32.1 °F 29.2 °F 30.28 in Calm   1.0 mph 89% 0.00 in 0.00 W/m2
23:57 32.0 °F 29.1 °F 30.28 in Calm   1.0 mph 89% 0.00 in 0.00 W/m2
Foresthill Weather
 WU-history PHP script courtesy of   Juneau County Weather.
powered by Cumulus v1.9.3 (1059)
Ambient Weather VWS v14.00
Top Contact Website Map Copyright © 2007 - 2018 Foresthillweather.com Never base important decisions on this or any weather information obtained from the Internet